User: anonymous   Login
Location: Alfortville
(48.8058°N, 2.4204°E)
Time: 00:20:47
(UTC+00:00)
Language:

SJ-9A - Orbit

View from above orbital plane
View from above orbital plane
View from above satellite
View from above satellite

Ground track
Ground track

The orbit data is extracted from the following two-line orbital elements,

1 38860U 12056A   22222.42423266  .00000343  00000-0  51560-4 0  9999
2 38860  97.5892 241.7141 0028491 191.9879 168.0673 14.80029264530370
Epoch (UTC): 10 August 2022 10:10:53
Eccentricity: 0.0028491
inclination: 97.5892°
perigee height: 609 km
apogee height: 649 km
right ascension of ascending node: 241.7141°
argument of perigee: 191.9879°
revolutions per day: 14.80029264
mean anomaly at epoch: 168.0673°
orbit number at epoch: 53037

The dashed part of the orbit path shows where the satellite is in the earth's shadow,  

DLR